[[{"header":{"parameterUnit":"m.s-1","parameterCategory":1,"la1":30.2991,"la2":30.254,"lo1":-89.0895,"lo2":-89.0444,"dy":0.0017,"dx":0.0017,"nx":28,"ny":28,"refTime":"2023-07-22T09:00:00:Z","depth":0,"parameterNumber":2,"parameterNumberName":"U-component_of_WINDS"},"data":[0,0,0,0,0,0,0,0,0,0,0,0,0,0,0,0,0,0,0,0,0,0,0,0,0,0,0,0,0,0,0,0,0,0,0,0,0,0,0,0,0,0,0,0,0,0,0,0,0,0,0,0,0,0,0,0,0,0,1.5044,1.5046,0,1.5241,1.5244,1.5246,1.5271,1.5269,1.5267,1.5265,1.5478,1.5486,1.5493,0,0,0,0,0,0,0,0,0,0,0,0,0,1.4698,1.4704,1.5044,1.5046,1.5049,1.5241,1.5244,1.5247,1.5272,1.5269,1.5267,1.5265,1.5476,1.5485,1.5494,0,0,0,0,0,0,0,0,0,0,0,0,0,1.4868,1.4706,1.5043,1.5084,1.509,1.5241,1.5244,1.5247,1.5272,1.5269,1.5266,1.5263,1.5473,1.5484,1.5495,1.5622,0,0,1.5529,1.5534,0,0,0,0,0,0,0,0,1.4858,1.488,1.5076,1.5082,1.5088,1.5228,1.52,1.5373,1.5273,1.5203,1.5265,1.5262,1.5398,1.5415,1.5459,1.5632,1.5641,1.553,1.5537,1.5542,1.5545,0,0,0,0,0,0,0,1.4846,1.4872,1.5122,1.5079,1.5086,1.5096,1.5117,1.5233,1.5315,1.5209,1.5211,1.5234,1.5401,1.5448,1.5464,1.5644,1.553,1.554,1.5547,1.5551,1.5932,1.5935,0,0,0,0,0,0,1.4825,1.4862,1.5116,1.5128,1.4963,1.5104,1.5128,1.5187,1.5314,1.533,1.5236,1.5234,1.5431,1.5451,1.5472,1.5629,1.5542,1.5552,1.5559,1.5928,1.5933,1.5936,0,0,0,0,0,0,1.4818,1.4848,1.5108,1.4996,1.503,1.5113,1.5179,1.5192,1.5239,1.5334,1.535,1.5268,1.5429,1.5456,1.5584,1.5636,1.5557,1.5567,1.5924,1.593,1.5934,1.5943,0,0,0,0,0,0,1.4808,1.4845,1.4892,1.4996,1.5035,1.5214,1.5183,1.5198,1.5257,1.5256,1.5368,1.5384,1.5429,1.5567,1.5595,1.565,1.5576,1.592,1.5927,1.5933,1.5938,1.5948,1.5956,0,0,0,0,0,1.4795,1.4889,1.4894,1.4925,1.5095,1.5216,1.5239,1.5285,1.5261,1.531,1.5371,1.5381,1.5626,1.558,1.5612,1.5671,1.5917,1.5925,1.5932,1.5934,1.5946,1.5955,0,0,0,0,0,0,1.4792,1.4903,1.491,1.5039,1.5118,1.522,1.5284,1.5296,1.5386,1.5382,1.5439,1.5464,1.5589,1.5644,1.559,1.5801,1.577,1.5784,1.5761,1.5772,1.5781,1.5765,1.5585,0,0,0,0,0,1.4805,1.4891,1.4985,1.5091,1.5129,1.5199,1.5254,1.5283,1.5368,1.5402,1.5473,1.5558,1.5654,1.5716,1.581,1.5947,1.5972,1.6004,1.6012,1.6019,1.6031,1.6107,1.6122,1.5961,1.5961,1.5961,0,0,1.4835,1.4907,1.4958,1.5092,1.5156,1.5246,1.5227,1.5324,1.5393,1.5418,1.5541,1.5596,1.5695,1.5827,1.5889,1.5876,1.608,1.6029,1.6033,1.6042,1.6116,1.6131,1.6145,1.5966,1.5966,1.5965,0,0,1.4936,1.4998,1.5092,1.5156,1.5252,1.5298,1.5321,1.5422,1.5458,1.5582,1.5602,1.5687,1.5851,1.5921,1.5977,1.6104,1.6116,1.6134,1.6179,1.6252,1.6265,1.6276,1.6321,1.6337,1.6145,1.6145,1.6145,0,1.4962,1.5095,1.514,1.5235,1.5294,1.5317,1.5414,1.5476,1.5599,1.564,1.5623,1.5829,1.5898,1.6046,1.6077,1.6122,1.6151,1.6121,1.6259,1.6271,1.6282,1.6326,1.6343,1.6146,1.6146,1.6146,1.6146,0,1.5123,1.5216,1.5281,1.5394,1.5461,1.5557,1.5618,1.5681,1.5704,1.5753,1.588,1.5962,1.6073,1.6111,1.6136,1.6264,1.6252,1.6247,1.6216,1.6298,1.634,1.6357,1.6148,1.6148,1.6147,1.6147,0,0,1.5226,1.5362,1.5385,1.5437,1.5545,1.5619,1.5717,1.5822,1.5874,1.5959,1.6044,1.6182,1.6177,1.6242,1.6275,1.634,1.6434,1.6327,1.633,1.6343,1.658,1.6583,1.6601,1.6443,1.6447,1.6449,1.6571,0,1.5338,1.5509,1.5552,1.5699,1.5786,1.581,1.5896,1.5972,1.6021,1.6105,1.616,1.6256,1.6243,1.6282,1.6347,1.6409,1.6483,1.6401,1.6525,1.6529,1.6498,1.6623,1.6627,1.6737,1.6588,1.6591,1.6593,0,1.5492,1.5575,1.573,1.5825,1.5864,1.5939,1.6038,1.6117,1.6206,1.6237,1.6308,1.6335,1.6441,1.6406,1.6553,1.6496,1.655,1.6589,1.6594,1.6607,1.6565,1.6639,1.6774,1.679,1.6619,1.6617,1.6615,0,1.555,1.5702,1.5814,1.5858,1.5973,1.6025,1.6076,1.6162,1.6222,1.6311,1.635,1.6451,1.6507,1.6586,1.664,1.6609,1.6784,1.6752,1.6814,1.6812,1.6849,1.6846,1.6994,1.6885,1.6884,1.6884,1.6884,0,1.567,1.5764,1.5841,1.591,1.6016,1.6066,1.6171,1.6224,1.63,1.6381,1.641,1.6487,1.6554,1.6641,1.6686,1.6801,1.6827,1.6856,1.6866,1.6853,1.6849,1.6888,1.6882,1.6889,1.6888,1.6887,1.6886,0,1.5753,1.5809,1.5932,1.603,1.6057,1.6131,1.6216,1.6285,1.6334,1.6437,1.6465,1.6543,1.6647,1.6709,1.6841,1.6871,1.6998,1.7006,1.6967,1.6971,1.7029,1.7022,1.7207,1.7234,1.7107,1.7108,1.7109,0,1.5825,1.5897,1.6002,1.6056,1.6107,1.6196,1.6256,1.6309,1.6372,1.6478,1.6535,1.6639,1.6725,1.689,1.6961,1.7063,1.7073,1.7131,1.7089,1.7073,1.7073,1.7068,1.7075,1.7138,1.7139,1.714,1.714,0,1.5947,1.5971,1.6055,1.6149,1.622,1.6298,1.6375,1.642,1.6487,1.6556,1.666,1.6726,1.686,1.6964,1.7071,1.7127,1.7146,1.7153,1.7173,1.7159,1.7133,1.7147,1.6985,1.7149,1.7148,1.7147,1.7147,1.7146,1.6027,1.6091,1.6174,1.6268,1.6331,1.6403,1.6472,1.6529,1.6615,1.6725,1.6753,1.6862,1.6951,1.7096,1.7155,1.7243,1.7235,1.7263,1.727,1.7276,1.7277,1.7119,1.7264,1.7263,1.7263,1.7263,1.7263,0,1.615,1.6204,1.6289,1.6395,1.6469,1.6476,1.6563,1.6625,1.672,1.6799,1.6882,1.7002,1.7103,1.7182,1.7286,1.7342,1.7353,1.7368,1.7364,1.7376,1.7279,1.7251,1.7357,1.7357,1.7356,1.7356,1.7356,1.7356,1.6222,1.6331,1.6365,1.6507,1.6563,1.6667,1.6715,1.6783,1.6846,1.6977,1.706,1.7109,1.7189,1.7299,1.7393,1.7414,1.7451,1.7464,1.7486,1.7394,1.7383,1.7374,1.7348,1.7471,1.7472,1.7576,1.7577,1.7578]},{"header":{"parameterUnit":"m.s-1","parameterCategory":1,"la1":30.2991,"la2":30.254,"lo1":-89.0895,"lo2":-89.0444,"dy":0.0017,"dx":0.0017,"nx":28,"ny":28,"refTime":"2023-07-22T09:00:00:Z","depth":0,"parameterNumber":3,"parameterNumberName":"V-component_of_WINDS"},"data":[0,0,0,0,0,0,0,0,0,0,0,0,0,0,0,0,0,0,0,0,0,0,0,0,0,0,0,0,0,0,0,0,0,0,0,0,0,0,0,0,0,0,0,0,0,0,0,0,0,0,0,0,0,0,0,0,0,0,4.3359,4.3359,0,4.335,4.335,4.335,4.3309,4.3308,4.3307,4.3306,4.3296,4.3296,4.3297,0,0,0,0,0,0,0,0,0,0,0,0,0,4.334,4.3341,4.3359,4.3359,4.3359,4.335,4.335,4.335,4.3309,4.3308,4.3307,4.3306,4.3296,4.3296,4.3297,0,0,0,0,0,0,0,0,0,0,0,0,0,4.3342,4.3341,4.3359,4.3338,4.3336,4.335,4.335,4.335,4.3309,4.3308,4.3306,4.3305,4.3295,4.3296,4.3297,4.3332,0,0,4.33,4.33,0,0,0,0,0,0,0,0,4.3341,4.3342,4.3341,4.3339,4.3337,4.3329,4.334,4.3344,4.331,4.3319,4.3306,4.3304,4.3308,4.3308,4.3309,4.3331,4.3331,4.33,4.3301,4.3301,4.3301,0,0,0,0,0,0,0,4.3341,4.3342,4.3356,4.3341,4.3338,4.3328,4.3327,4.334,4.3322,4.3318,4.3315,4.3315,4.3307,4.3308,4.3309,4.3331,4.33,4.3301,4.3301,4.3302,4.3381,4.3382,0,0,0,0,0,0,4.3345,4.3343,4.3356,4.3355,4.3336,4.333,4.3328,4.3333,4.3322,4.3318,4.3316,4.3313,4.3308,4.3308,4.3308,4.3348,4.3301,4.3302,4.3302,4.3379,4.3381,4.3383,0,0,0,0,0,0,4.3344,4.3346,4.3356,4.3348,4.3349,4.3331,4.3338,4.3334,4.3335,4.332,4.3316,4.3321,4.3306,4.3307,4.3326,4.3347,4.3302,4.3303,4.3378,4.338,4.3382,4.3427,0,0,0,0,0,0,4.3344,4.3346,4.3359,4.3349,4.3349,4.3375,4.3339,4.3335,4.3337,4.3333,4.3324,4.3321,4.3305,4.3325,4.3327,4.3347,4.3304,4.3376,4.3379,4.3381,4.3424,4.3431,4.3437,0,0,0,0,0,4.3343,4.3372,4.336,4.3362,4.3365,4.3376,4.3376,4.3358,4.3339,4.3352,4.3342,4.3321,4.3345,4.3328,4.333,4.335,4.3374,4.3378,4.3381,4.3421,4.3429,4.3436,0,0,0,0,0,0,4.3384,4.337,4.3357,4.3383,4.3381,4.3369,4.3385,4.3368,4.3371,4.3367,4.3344,4.3342,4.3365,4.3359,4.3341,4.3383,4.3356,4.336,4.3385,4.3393,4.34,4.34,4.3305,0,0,0,0,0,4.3397,4.3407,4.3394,4.3418,4.3418,4.3402,4.3406,4.3392,4.3389,4.3388,4.3379,4.3377,4.3384,4.3388,4.3394,4.3423,4.342,4.3439,4.3445,4.345,4.3454,4.3469,4.3477,4.3394,4.3394,4.3394,0,0,4.3422,4.3415,4.3423,4.3427,4.3423,4.3434,4.3401,4.3414,4.3422,4.339,4.3407,4.3401,4.3397,4.3422,4.3432,4.3418,4.3476,4.3455,4.3459,4.346,4.3473,4.3481,4.3488,4.3397,4.3396,4.3396,0,0,4.3473,4.3469,4.3489,4.3487,4.3483,4.3472,4.3478,4.3468,4.3463,4.3481,4.3457,4.3466,4.3478,4.3476,4.3476,4.3529,4.3509,4.3531,4.3564,4.3579,4.3586,4.3591,4.3609,4.3616,4.3535,4.3535,4.3535,0,4.3504,4.352,4.3501,4.3516,4.3518,4.3491,4.351,4.3509,4.3507,4.3509,4.3494,4.3509,4.3504,4.3528,4.354,4.3542,4.3547,4.3531,4.3586,4.3592,4.3597,4.3614,4.3621,4.3537,4.3537,4.3537,4.3537,0,4.3558,4.357,4.3586,4.3586,4.359,4.3607,4.3591,4.3597,4.3584,4.3575,4.3593,4.3587,4.3591,4.3596,4.3582,4.3618,4.3609,4.3591,4.3562,4.3608,4.3623,4.3629,4.3541,4.354,4.3539,4.3539,0,0,4.3632,4.3623,4.3629,4.3629,4.3623,4.3632,4.3648,4.3652,4.3658,4.3658,4.367,4.3682,4.3665,4.3666,4.3652,4.3666,4.3707,4.3646,4.3645,4.3656,4.3745,4.3758,4.3766,4.3695,4.3696,4.3697,4.3745,0,4.368,4.3708,4.3692,4.3721,4.3732,4.3707,4.3721,4.3719,4.3711,4.3719,4.371,4.3718,4.3696,4.3696,4.3708,4.3699,4.3724,4.3696,4.3706,4.3706,4.3706,4.3774,4.3788,4.3834,4.3751,4.3752,4.3753,0,4.3739,4.3743,4.3773,4.3767,4.377,4.3783,4.3786,4.3794,4.3792,4.3785,4.3787,4.377,4.3785,4.3759,4.378,4.3761,4.3764,4.376,4.3762,4.3761,4.3732,4.3775,4.3848,4.3855,4.3762,4.3762,4.3761,0,4.3789,4.3802,4.3822,4.3822,4.3815,4.3825,4.3822,4.3819,4.3823,4.3825,4.3827,4.3832,4.3834,4.3838,4.3823,4.3805,4.3845,4.3818,4.384,4.384,4.3848,4.3848,4.3923,4.3852,4.3852,4.3852,4.3852,0,4.3843,4.3863,4.3844,4.3856,4.3878,4.386,4.3882,4.3876,4.3874,4.3884,4.3863,4.3873,4.3854,4.3862,4.385,4.3869,4.387,4.3865,4.3862,4.3866,4.3867,4.3867,4.3864,4.3854,4.3853,4.3853,4.3853,0,4.3902,4.3891,4.391,4.3903,4.3902,4.3918,4.3911,4.3922,4.3913,4.3927,4.3929,4.3916,4.3925,4.3911,4.3918,4.391,4.3936,4.3928,4.3937,4.3934,4.3957,4.3955,4.4034,4.4043,4.3968,4.3968,4.3969,0,4.3937,4.3951,4.3946,4.3952,4.3951,4.3961,4.3965,4.3949,4.3954,4.3953,4.3964,4.3971,4.3976,4.3991,4.3982,4.3987,4.3979,4.4006,4.3979,4.3984,4.3979,4.3978,4.3979,4.4012,4.4012,4.4013,4.4014,0,4.3999,4.3993,4.4,4.4006,4.4012,4.4015,4.4017,4.4023,4.4006,4.4013,4.4022,4.4026,4.4034,4.4042,4.4045,4.4042,4.4025,4.4023,4.4028,4.4033,4.4037,4.4035,4.3951,4.4021,4.402,4.4019,4.4019,4.4019,4.4046,4.4058,4.4057,4.4065,4.4066,4.4068,4.4078,4.4072,4.408,4.4085,4.4075,4.4087,4.4085,4.4088,4.4087,4.4096,4.4084,4.4092,4.4094,4.4096,4.4099,4.4037,4.4097,4.4097,4.4096,4.4096,4.4096,0,4.4107,4.4105,4.4114,4.4118,4.4125,4.411,4.4112,4.4118,4.413,4.413,4.4135,4.4146,4.4154,4.4146,4.4152,4.4161,4.4153,4.4163,4.4161,4.4161,4.411,4.4104,4.4169,4.4169,4.4169,4.4169,4.4169,4.4169,4.4139,4.4159,4.4153,4.4173,4.4171,4.4183,4.4185,4.4188,4.4188,4.4201,4.4208,4.4203,4.42,4.4206,4.4212,4.421,4.4213,4.4225,4.422,4.4172,4.4165,4.4158,4.4153,4.4226,4.4226,4.427,4.4271,4.4271]}]]